When you browse on this site, cookies collect data to enhance your experience and personalize the content and advertising you see.
Visit our Privacy Policy to learn more. By continuing to use the site, you agree to this use of cookies and data.
  • In Switzerland
  • List of Countries
  • For 7 days
  • Water Temperature
  • Satellite Maps
  • Weather Map
  • Weather Widgets
  • user-avatar
    Login

    Hourly Weather Plachynda

    Today, 23 July, Tuesday

    Time Temperature Precipitation Wind Pressure Humidity
    00:00 +22°C° 0 mm 3 mps 746 mmHg 69%
    01:00 +21°C° 0 mm 3 mps 746 mmHg 73%
    02:00 +20°C° 0 mm 3 mps 746 mmHg 76%
    03:00 +20°C° 0.1 mm 3 mps 745 mmHg 80%
    04:00 +19°C° 0.1 mm 3 mps 745 mmHg 83%
    05:00 +19°C° 0.1 mm 3 mps 745 mmHg 87%
    06:00 +20°C° 0 mm 3 mps 745 mmHg 80%
    07:00 +21°C° 0 mm 4 mps 745 mmHg 74%
    08:00 +23°C° 0 mm 4 mps 745 mmHg 68%
    09:00 +25°C° 0 mm 4 mps 745 mmHg 62%
    10:00 +25°C° 0 mm 4 mps 745 mmHg 57%
    11:00 +26°C° 0 mm 4 mps 745 mmHg 51%
    12:00 +27°C° 0 mm 4 mps 745 mmHg 47%
    13:00 +28°C° 0 mm 4 mps 744 mmHg 42%
    14:00 +29°C° 0 mm 4 mps 744 mmHg 38%
    15:00 +26°C° 0.2 mm 5 mps 744 mmHg 48%
    16:00 +23°C° 0.2 mm 5 mps 744 mmHg 58%
    17:00 +20°C° 0.2 mm 6 mps 744 mmHg 68%
    18:00 +20°C° 0 mm 5 mps 744 mmHg 70%
    19:00 +19°C° 0 mm 4 mps 744 mmHg 71%
    20:00 +19°C° 0 mm 3 mps 743 mmHg 72%
    21:00 +19°C° 0 mm 3 mps 744 mmHg 75%
    22:00 +18°C° 0 mm 3 mps 744 mmHg 77%
    23:00 +17°C° 0 mm 3 mps 744 mmHg 79%

    Tomorrow, 24 July, Wednesday

    Time Temperature Precipitation Wind Pressure Humidity
    00:00 +17°C° 0 mm 3 mps 744 mmHg 81%
    01:00 +17°C° 0 mm 3 mps 743 mmHg 82%
    02:00 +15°C° 0 mm 4 mps 743 mmHg 84%
    03:00 +15°C° 0 mm 4 mps 743 mmHg 85%
    04:00 +14°C° 0 mm 4 mps 743 mmHg 86%
    05:00 +14°C° 0 mm 4 mps 743 mmHg 87%
    06:00 +17°C° 0 mm 4 mps 743 mmHg 79%
    07:00 +19°C° 0 mm 5 mps 744 mmHg 70%
    08:00 +21°C° 0 mm 6 mps 744 mmHg 62%
    09:00 +22°C° 0 mm 6 mps 744 mmHg 57%
    10:00 +24°C° 0 mm 6 mps 744 mmHg 52%
    11:00 +26°C° 0 mm 6 mps 744 mmHg 47%
    12:00 +27°C° 0 mm 6 mps 744 mmHg 45%
    13:00 +28°C° 0 mm 6 mps 743 mmHg 43%
    14:00 +29°C° 0 mm 6 mps 743 mmHg 40%
    15:00 +28°C° 0 mm 6 mps 743 mmHg 42%
    16:00 +28°C° 0 mm 6 mps 743 mmHg 44%
    17:00 +27°C° 0 mm 6 mps 743 mmHg 46%
    18:00 +26°C° 0 mm 5 mps 743 mmHg 51%
    19:00 +23°C° 0 mm 4 mps 743 mmHg 57%
    20:00 +22°C° 0 mm 3 mps 743 mmHg 62%
    21:00 +21°C° 0 mm 3 mps 743 mmHg 67%
    22:00 +20°C° 0 mm 3 mps 744 mmHg 71%
    23:00 +19°C° 0 mm 3 mps 744 mmHg 76%

    Day after tomorrow, 25 July, Thursday

    Time Temperature Precipitation Wind Pressure Humidity
    00:00 +19°C° 0 mm 3 mps 744 mmHg 79%
    01:00 +18°C° 0 mm 3 mps 744 mmHg 82%
    02:00 +18°C° 0 mm 3 mps 744 mmHg 86%
    03:00 +17°C° 0 mm 3 mps 744 mmHg 87%
    04:00 +17°C° 0 mm 4 mps 744 mmHg 89%
    05:00 +17°C° 0 mm 4 mps 744 mmHg 91%
    06:00 +19°C° 0 mm 4 mps 745 mmHg 81%
    07:00 +21°C° 0 mm 4 mps 745 mmHg 72%
    08:00 +23°C° 0 mm 5 mps 745 mmHg 63%
    09:00 +25°C° 0 mm 5 mps 745 mmHg 56%
    10:00 +27°C° 0 mm 5 mps 745 mmHg 49%
    11:00 +28°C° 0 mm 5 mps 745 mmHg 42%
    12:00 +29°C° 0 mm 5 mps 745 mmHg 40%
    13:00 +29°C° 0 mm 5 mps 745 mmHg 37%
    14:00 +30°C° 0 mm 5 mps 744 mmHg 35%
    15:00 +30°C° 0 mm 5 mps 744 mmHg 35%
    16:00 +30°C° 0 mm 5 mps 744 mmHg 34%
    17:00 +30°C° 0 mm 5 mps 744 mmHg 34%
    18:00 +28°C° 0 mm 4 mps 744 mmHg 40%
    19:00 +26°C° 0 mm 3 mps 744 mmHg 46%
    20:00 +24°C° 0 mm 2 mps 744 mmHg 51%
    21:00 +23°C° 0 mm 2 mps 744 mmHg 55%
    22:00 +22°C° 0 mm 1 mps 744 mmHg 58%
    23:00 +21°C° 0 mm 1 mps 744 mmHg 62%

    26 July, Friday

    Time Temperature Precipitation Wind Pressure Humidity
    00:00 +21°C° 0 mm 1 mps 744 mmHg 64%
    01:00 +20°C° 0 mm 1 mps 743 mmHg 66%
    02:00 +18°C° 0 mm 0 mps 743 mmHg 69%
    03:00 +18°C° 0 mm 0 mps 743 mmHg 69%
    04:00 +18°C° 0 mm 0 mps 743 mmHg 69%
    05:00 +20°C° 0 mm 1 mps 743 mmHg 69%
    06:00 +21°C° 0 mm 1 mps 743 mmHg 64%
    07:00 +23°C° 0 mm 1 mps 743 mmHg 59%
    08:00 +25°C° 0 mm 2 mps 743 mmHg 54%
    09:00 +26°C° 0 mm 2 mps 742 mmHg 49%
    10:00 +28°C° 0 mm 2 mps 742 mmHg 45%
    11:00 +29°C° 0 mm 2 mps 742 mmHg 40%
    12:00 +29°C° 0 mm 2 mps 742 mmHg 40%
    13:00 +30°C° 0 mm 2 mps 741 mmHg 40%
    14:00 +30°C° 0 mm 2 mps 741 mmHg 40%
    15:00 +29°C° 0 mm 2 mps 741 mmHg 42%
    16:00 +29°C° 0 mm 2 mps 740 mmHg 44%
    17:00 +29°C° 0 mm 3 mps 740 mmHg 46%
    18:00 +27°C° 0.3 mm 3 mps 740 mmHg 54%
    19:00 +25°C° 0.3 mm 2 mps 740 mmHg 62%
    20:00 +23°C° 0.3 mm 2 mps 740 mmHg 70%
    21:00 +23°C° 0.3 mm 2 mps 740 mmHg 72%
    22:00 +21°C° 0.3 mm 2 mps 740 mmHg 75%
    23:00 +22°C° 0.3 mm 1 mps 740 mmHg 77%

    27 July, Saturday

    Time Temperature Precipitation Wind Pressure Humidity
    00:00 +22°C° 0.9 mm 1 mps 739 mmHg 80%
    01:00 +21°C° 0.9 mm 1 mps 739 mmHg 83%
    02:00 +21°C° 0.9 mm 1 mps 739 mmHg 85%
    03:00 +20°C° 0.3 mm 1 mps 739 mmHg 86%
    04:00 +20°C° 0.3 mm 1 mps 738 mmHg 87%
    05:00 +19°C° 0.3 mm 1 mps 738 mmHg 87%
    06:00 +20°C° 0 mm 2 mps 738 mmHg 80%
    07:00 +23°C° 0 mm 2 mps 739 mmHg 73%
    08:00 +24°C° 0 mm 3 mps 739 mmHg 66%
    09:00 +25°C° 0 mm 3 mps 739 mmHg 60%
    10:00 +27°C° 0 mm 3 mps 739 mmHg 54%
    11:00 +28°C° 0 mm 3 mps 738 mmHg 48%
    12:00 +29°C° 0 mm 3 mps 738 mmHg 47%
    13:00 +29°C° 0 mm 2 mps 738 mmHg 45%
    14:00 +30°C° 0 mm 2 mps 737 mmHg 44%
    15:00 +30°C° 0 mm 2 mps 737 mmHg 44%
    16:00 +30°C° 0 mm 2 mps 737 mmHg 44%
    17:00 +30°C° 0 mm 2 mps 737 mmHg 43%
    18:00 +28°C° 0.2 mm 2 mps 737 mmHg 51%
    19:00 +26°C° 0.2 mm 2 mps 737 mmHg 59%
    20:00 +24°C° 0.2 mm 2 mps 737 mmHg 67%
    21:00 +23°C° 0.2 mm 2 mps 737 mmHg 70%
    22:00 +23°C° 0.2 mm 2 mps 737 mmHg 74%
    23:00 +21°C° 0.2 mm 2 mps 737 mmHg 78%

    28 July, Sunday

    Time Temperature Precipitation Wind Pressure Humidity
    00:00 +21°C° 0.1 mm 2 mps 737 mmHg 79%
    01:00 +21°C° 0.1 mm 2 mps 737 mmHg 80%
    02:00 +20°C° 0.1 mm 2 mps 737 mmHg 80%
    03:00 +20°C° 0.1 mm 2 mps 737 mmHg 82%
    04:00 +21°C° 0.1 mm 1 mps 737 mmHg 83%
    05:00 +21°C° 0.1 mm 1 mps 737 mmHg 84%
    06:00 +22°C° 0.2 mm 1 mps 737 mmHg 79%
    07:00 +23°C° 0.2 mm 1 mps 737 mmHg 74%
    08:00 +23°C° 0.2 mm 1 mps 737 mmHg 70%
    09:00 +24°C° 0.1 mm 1 mps 737 mmHg 67%
    10:00 +25°C° 0.1 mm 1 mps 737 mmHg 64%
    11:00 +26°C° 0.1 mm 1 mps 737 mmHg 61%
    12:00 +27°C° 0 mm 1 mps 737 mmHg 58%
    13:00 +27°C° 0 mm 1 mps 737 mmHg 55%
    14:00 +28°C° 0 mm 2 mps 737 mmHg 52%
    15:00 +28°C° 0 mm 2 mps 736 mmHg 50%
    16:00 +29°C° 0 mm 2 mps 736 mmHg 49%
    17:00 +29°C° 0 mm 2 mps 736 mmHg 48%
    18:00 +27°C° 0.2 mm 2 mps 736 mmHg 54%
    19:00 +26°C° 0.2 mm 2 mps 736 mmHg 59%
    20:00 +24°C° 0.2 mm 2 mps 736 mmHg 65%
    21:00 +24°C° 1.3 mm 2 mps 736 mmHg 70%
    22:00 +23°C° 1.3 mm 2 mps 736 mmHg 75%
    23:00 +22°C° 1.3 mm 1 mps 737 mmHg 80%
    Show more